Regional Weather Roundup
Issued by NWS Sterling, VA

Home | Current Version | Previous Version | Text Only | Print | Product List | Glossary Off
Versions: 1 2 3 4 5 6 7 8 9 10 11 12 13 14 15 16 17 18 19 20 21 22 23 24 25 26 27 28

000
ASUS41 KLWX 252311
RWRLWX

REGIONAL WEATHER ROUNDUP
NATIONAL WEATHER SERVICE BALTIMORE MD/WASHINGTON DC
700 PM EDT SUN JUN 25 2017

Note: "FAIR" indicates few or no clouds below 12,000 feet
with no significant weather and/or obstructions to visibility.
 TC=TEMPERATURE CELSIUS

 * =Non NWS site. Station does not report precipitation (e.g. rain,
    snow, etc.), thunder, or fog.

DCZ001-MDZ009-015-VAZ040>042-051-053>054-260000-
WASHINGTON METRO

CITY           SKY/WX    TMP DP  RH WIND       PRES   REMARKS
WASHINGTON NAT PTSUNNY   84  46  26 NW18      29.99R
DULLES         MOSUNNY   80  44  27 NW17      30.01R
ANDREWS AFB    MOSUNNY   83  48  30 NW13      29.98R
FT BELVOIR     CLOUDY    84  47  27 NW15      29.99R
QUANTICO       PTSUNNY   84  53  34 N7        30.00R
COLLEGE PARK*  CLOUDY    82  46  28 W10G17    29.99R
LEESBURG*      SUNNY    N/A N/A N/A NW12G21   30.03R
MANASSAS*      CLOUDY    82  49  31 NW13      30.01R
GAITHERSBURG*  SUNNY     78  49  35 W10       30.03R

$$

MDZ006>007-011-014-260000-
BALTIMORE METRO

CITY           SKY/WX    TMP DP  RH WIND       PRES   REMARKS
BWI AIRPORT    MOSUNNY   82  46  28 W15G23    29.98R
MD SCIENCE CTR   N/A     84  45  25 MISG      29.98R
MARTIN STATE   MOSUNNY   84  48  28 W12       29.98R
ANNAPOLIS      MOSUNNY   81  54  39 NW10      29.97R
FORT MEADE*    SUNNY     79  46  31 NW9       30.01R

$$

MDZ012-015-019>023-260000-
MARYLAND EASTERN SHORE

CITY           SKY/WX    TMP DP  RH WIND       PRES   REMARKS
OCEAN CITY     SUNNY     73  65  75 S5        29.99R
SALISBURY      MOSUNNY   81  61  50 SW7       29.98R
BAY BRIDGE AP* MOSUNNY   82  54  36 NW9       29.97R
CAMBRIDGE*     SUNNY     82  61  47 VRB6      29.97R
EASTON*        MOSUNNY   82  59  44 CALM      30.01R

$$

MDZ017>025-260000-
SOUTHERN MARYLAND

CITY           SKY/WX    TMP DP  RH WIND       PRES   REMARKS
PATUXENT RIVER PTSUNNY   81  62  52 SW3       29.98R
ST INIGOES     CLOUDY    82  64  54 S3        29.98R
LEONARDTOWN*   CLOUDY    81  61  50 S5        30.00R

$$

MDZ003>005-260000-
NORTH CENTRAL MARYLAND

CITY           SKY/WX    TMP DP  RH WIND       PRES   REMARKS
FREDERICK*     MOSUNNY  N/A N/A N/A NW13      30.03R
HAGERSTOWN APT SUNNY     79  46  31 W9        30.01R
WESTMINSTER*   SUNNY     81  50  34 W13G18    30.01R

$$

MDZ501>502-260000-
WESTERN MARYLAND

CITY           SKY/WX    TMP DP  RH WIND       PRES   REMARKS
OAKLAND*       NOT AVBL
CUMBERLAND*    MOSUNNY   77  43  29 W9G21     30.07S

$$

VAZ025>031-260000-
SHENANDOAH VALLEY

CITY           SKY/WX    TMP DP  RH WIND       PRES   REMARKS
WINCHESTER*    SUNNY     77  43  29 W17       30.04R
FRONT ROYAL*   MOSUNNY   79  45  29 NW7       30.04R
LURAY*         SUNNY     79  45  29 NW7       30.05R
NEW MARKET*    MOSUNNY   76  41  27 W3        30.06R
STAUNTON*      SUNNY     76  45  33 NW12      30.09R
WAYNESBORO*    PTSUNNY   76  46  33 NW9       30.08R

$$

WVZ021-048>050-054>055-260000-
EASTERN WEST VIRGINIA PANHANDLE

CITY           SKY/WX    TMP DP  RH WIND       PRES   REMARKS
MARTINSBURG    MOSUNNY   77  45  32 W12       30.02R
PETERSBURG*    SUNNY     77  48  35 W8        30.07R

$$

VAZ036>039-050-260000-
CENTRAL FOOTHILLS

CITY           SKY/WX    TMP DP  RH WIND       PRES   REMARKS
CHARLOTTESVILL MOSUNNY   83  49  30 NW7       30.02R
CULPEPER*      MOSUNNY   81  51  35 NW7       30.02R
ORANGE*        CLOUDY    79  55  44 N3        30.01R
GORDONSVILLE*  PTSUNNY   82  54  37 CALM      30.01R
WARRENTON*     MOSUNNY   83  40  21 NW9       30.01R

$$

VAZ055>057-260000-
NORTH AND CENTRAL PIEDMONT

CITY           SKY/WX    TMP DP  RH WIND       PRES   REMARKS
FREDERICKSBRG* CLOUDY    82  58  43 NW7       29.99R
STAFFORD*      CLOUDY    78  63  61 NW5       30.04R

$$

NCZ024-NYZ072-PAZ021-071-VAZ022-071-260000-
OTHER REGIONAL OBSERVATIONS

CITY           SKY/WX    TMP DP  RH WIND       PRES   REMARKS
NEW YORK CITY  MOSUNNY   76  58  53 CALM      29.95S
PHILADELPHIA   PTSUNNY   84  52  33 W16       29.94R
PITTSBURGH     MOSUNNY   71  49  45 W7        30.03R
ROANOKE        MOSUNNY   78  46  32 NW14G22   30.11R
RICHMOND       CLOUDY    81  58  45 W12       30.00R
RALEIGH        CLOUDY    79  63  57 NW3       30.05S

$$

ANZ530>537-260000-
MARINE OBSERVATIONS

STATION/POSITION TIME  TEMP    WIND        PRES
                       AIR SEA DIR/SP/G
                 (UTC) (F)     (DEG/KT/KT) (MB)
THOMAS PT LIGHT  2300   82 79  300/ 11/ 12   N/A
BALT KEY BRIDGE  2236   82     290/ 14/ 19 1014.4R
COVE POINT       2236   81     210/  6/  8 1015.6R
LEWISETTA        2236   81 80  100/  1/  1 1015.2R
SOLOMONS ISLAND  2236   81 80  230/  7/  9   N/A
PINEY POINT      2236          270/  1/  1   N/A

$$





USA.gov is the U.S. government's official web portal to all federal, state and local government web resources and services.